Home   Weather   Brentwood   Past weeks

Flag for United Kingdom Past Weather in Brentwood, England, United Kingdom — Yesterday and Last 2 Weeks

Now
54 °F

Cool.


Feels Like: 52 °F
Forecast: N/A
Wind: 8 mph from Southwest

Location: Gravesend-Broadness

Current Time: Dec 9, 2016 at 5:48:58 pm

Latest Report: Dec 9, 2016 at 5:00 pm


Visibility: N/A

Pressure: 30.26 "Hg

Humidity: 84%

Dew Point: 49 °F

Location of BrentwoodLocation

Past Weather in Brentwood — Graph

°F

Brentwood Temperature Yesterday

Maximum temperature yesterday: 57 °F (at 12:00 pm)
Minimum temperature yesterday: 52 °F (at 4:00 am)
Average temperature yesterday: 54 °F

High & Low Weather Summary for the Past Weeks

 TemperatureHumidityPressure
High58 °F (Dec 9, 2:00 pm)100% (Nov 26, 9:00 am)30.58 "Hg (Nov 26, 9:00 am)
Low23 °F (Nov 30, 5:00 am)50% (Nov 28, 12:00 pm)30.11 "Hg (Nov 26, 2:00 pm)
Average43 °F83%30.31 "Hg
* Reported Nov 24 4:00 pm — Dec 9 4:00 pm, Brentwood, Weather by CustomWeather, © 2016

Note: Actual official high and low records may vary slightly from our data, if they occured in-between our weather recording intervals... More about our weather records

Advertising

Brentwood Weather History for the Previous 24 Hours

Scroll right to see more
 ConditionsComfort  
Time TempWeatherWind HumidityBarometerVisibility
4:00 pm
Fri, Dec 9
55 °FCool.8 mph84%30.26 "HgN/A
3:00 pm57 °FCool.8 mph78%30.27 "HgN/A
2:00 pm58 °FCool.9 mph78%30.28 "HgN/A
1:00 pm56 °FCool.8 mph83%30.29 "HgN/A
12:00 pm55 °FCool.12 mph84%30.30 "HgN/A
11:00 am55 °FCool.12 mph85%30.30 "HgN/A
10:00 am55 °FCool.7 mph86%30.30 "HgN/A
9:00 am54 °FCool.7 mph90%30.30 "HgN/A
8:00 am54 °FCool.7 mph92%30.30 "HgN/A
7:00 am53 °FCool.7 mph93%30.29 "HgN/A
6:00 am54 °FCool.6 mph92%30.29 "HgN/A
5:00 am54 °FCool.8 mph92%30.29 "HgN/A
4:00 am54 °FCool.7 mph94%30.31 "HgN/A
3:00 am54 °FCool.6 mph93%30.31 "HgN/A
2:00 am54 °FCool.5 mph95%30.31 "HgN/A
1:00 am54 °FCool.3 mph95%30.31 "HgN/A
12:00 am54 °FCool.3 mph94%30.32 "HgN/A
11:00 pm
Thu, Dec 8
53 °FCool.6 mph93%30.32 "HgN/A
10:00 pm54 °FCool.8 mph90%30.32 "HgN/A
9:00 pm54 °FCool.8 mph92%30.32 "HgN/A
7:00 pm54 °FCool.6 mph90%30.30 "HgN/A
6:00 pm53 °FCool.5 mph91%30.29 "HgN/A
5:00 pm54 °FCool.8 mph89%30.27 "HgN/A
Weather by CustomWeather, © 2016

See weather overviewHow to use our weather pages